Location: Heilbronn
(49.1548°N, 9.2780°E)
Time: 05:31:25
(UTC+02:00)

ISS - Visible Passes

Search period start: 09 May 2021 00:00
Search period end: 19 May 2021 00:00
Orbit: 418 x 421 km, 51.6° (Epoch: 08 May)

Date Brightness Start Highest point End Pass type
(mag) Time Alt. Az. Time Alt. Az. Time Alt. Az.
09 May -2.0 02:03:26 26° ENE 02:03:26 26° ENE 02:05:04 10° ENE visible
09 May -3.1 03:36:22 19° WNW 03:38:37 54° N 03:41:58 10° ENE visible
10 May -0.9 01:17:27 11° ENE 01:17:27 11° ENE 01:17:36 10° ENE visible
10 May -3.3 02:50:22 45° WNW 02:51:08 60° N 02:54:29 10° ENE visible
10 May -3.3 04:24:49 10° WNW 04:28:11 63° N 04:31:34 10° E visible
11 May -3.0 02:04:21 50° NE 02:04:21 50° NE 02:07:02 10° ENE visible
11 May -3.1 03:37:22 10° WNW 03:40:42 56° N 03:44:02 10° E visible
12 May -1.7 01:18:16 22° ENE 01:18:16 22° ENE 01:19:35 10° ENE visible
12 May -3.0 02:51:12 21° WNW 02:53:12 53° N 02:56:32 10° E visible
12 May -3.8 04:26:48 10° WNW 04:30:11 86° SSW 04:33:34 10° ESE visible
13 May -0.9 00:32:06 10° ENE 00:32:06 10° ENE 00:32:08 10° ENE visible
13 May -3.1 02:05:02 45° NW 02:05:41 54° N 02:09:01 10° ENE visible
13 May -3.6 03:39:20 10° WNW 03:42:44 75° NNE 03:46:06 10° ESE visible
14 May -3.1 01:18:38 53° NNE 01:18:38 53° NNE 01:21:33 10° ENE visible
14 May -3.3 02:51:54 10° WNW 02:55:15 63° N 02:58:37 10° E visible
14 May -3.4 04:28:47 10° WNW 04:32:01 44° SSW 04:35:16 10° SE visible
14 May -3.2 22:50:55 10° SW 22:54:01 35° SSE 22:55:39 21° E visible
15 May -3.5 00:27:20 10° W 00:30:42 70° NNW 00:34:05 10° ENE visible
15 May -3.1 02:04:25 10° WNW 02:07:45 56° N 02:11:06 10° E visible
15 May -3.8 03:41:18 10° WNW 03:44:39 63° SSW 03:47:59 10° SE visible
15 May -2.6 22:03:57 10° SSW 22:06:42 24° SE 22:09:29 10° E visible
15 May -3.8 23:39:52 10° WSW 23:43:14 87° NNW 23:46:38 10° ENE visible
16 May -3.0 01:16:56 10° WNW 01:20:15 53° N 01:23:35 10° E visible
16 May -3.9 02:53:50 10° WNW 02:57:13 85° SSW 03:00:37 10° ESE visible
16 May -2.4 04:31:06 10° W 04:33:41 21° SW 04:36:17 10° S visible
16 May -3.9 22:52:27 10° WSW 22:55:48 71° SSE 22:59:10 10° ENE visible
17 May -3.0 00:29:24 10° W 00:32:44 54° N 00:36:04 10° ENE visible
17 May -3.7 02:06:23 10° WNW 02:09:47 76° NNE 02:13:09 10° ESE visible
17 May -3.0 03:43:23 10° W 03:46:24 30° SW 03:49:24 10° SSE visible
17 May -3.6 22:05:08 10° SW 22:08:24 50° SSE 22:11:42 10° ENE visible
17 May -3.2 23:41:53 10° W 23:45:14 59° N 23:48:35 10° ENE visible
18 May -3.4 01:18:56 10° WNW 01:22:17 63° NNE 01:22:55 50° ENE visible
18 May -1.1 02:55:49 10° WNW 02:55:49 10° WNW 02:55:49 10° WNW visible
18 May -3.5 22:54:22 10° W 22:57:44 70° NNW 23:01:06 10° ENE visible
